クリステンセン彗星

C/2014 M2 ( Christensen )

English version
Home page
Updated on November 3, 2015

---------------------------------------------------------------------

・ プロフィール

発見日 2014年6月25日
発見光度 19.4等
発見者 E. J. Christensen (Mount Lemmon)

・ 写真集

・ 軌道要素

Epoch 2014 July 2.0 TT = JDT 2456840.5
T 2014 July 18.30937 TT                                 MPCW
q   6.9090293            (2000.0)            P               Q
z  +0.0010188      Peri.   40.72500     +0.18422997     +0.85373337
 +/-0.0000102      Node   245.33059     -0.98187174     +0.13738399
e   0.9929607      Incl.   32.40806     -0.04457815     +0.50225986
From 51 observations 2014 June 25-2015 Sept. 10, mean residual 0".7.

・ 光度変化

        m1 = 7.5 + 5 logΔ + 10.0 log r

---------------------------------------------------------------------

軌道要素はM.P.E.C. 2015-S97に掲載されたものです。
光度グラフはComet for Windowsで作成したものです。

---------------------------------------------------------------------

Copyright(C) Seiichi Yoshida (comet@aerith.net). All rights reserved.